Wetterdaten: Mittwoch, 24.03.2010
Datum Zeit Temp. A. Feuchte A. Luftdruck Regen Wind Richtung Richtung Sonnenschein UV Solar Windben
24.03.2010 00:00 5,7 C 82 % 1015,9 hPa 0,0 mm 0,0 km/h (0 Bft) O 90 0 min 0 UV-I 0 W/m 3,2 km/h (1 Bft)
24.03.2010 00:10 5,7 C 82 % 1016,3 hPa 0,0 mm 1,6 km/h (1 Bft) O 90 0 min 0 UV-I 0 W/m 4,8 km/h (1 Bft)
24.03.2010 00:20 5,8 C 82 % 1016,3 hPa 0,0 mm 1,6 km/h (1 Bft) O 90 0 min 0 UV-I 0 W/m 4,8 km/h (1 Bft)
24.03.2010 00:30 6,0 C 82 % 1016,3 hPa 0,0 mm 1,6 km/h (1 Bft) O 90 0 min 0 UV-I 0 W/m 6,4 km/h (2 Bft)
24.03.2010 00:40 6,1 C 81 % 1016,2 hPa 0,0 mm 1,6 km/h (1 Bft) O 90 0 min 0 UV-I 0 W/m 4,8 km/h (1 Bft)
24.03.2010 00:50 6,2 C 81 % 1016,0 hPa 0,0 mm 0,0 km/h (0 Bft) O 90 0 min 0 UV-I 0 W/m 3,2 km/h (1 Bft)
24.03.2010 01:00 6,2 C 80 % 1016,0 hPa 0,0 mm 0,0 km/h (0 Bft) O 90 0 min 0 UV-I 0 W/m 3,2 km/h (1 Bft)
24.03.2010 01:10 6,2 C 81 % 1015,9 hPa 0,0 mm 0,0 km/h (0 Bft) O 90 0 min 0 UV-I 0 W/m 3,2 km/h (1 Bft)
24.03.2010 01:20 6,2 C 81 % 1015,8 hPa 0,0 mm 0,0 km/h (0 Bft) O 90 0 min 0 UV-I 0 W/m 3,2 km/h (1 Bft)
24.03.2010 01:30 6,1 C 82 % 1015,9 hPa 0,0 mm 0,0 km/h (0 Bft) O 90 0 min 0 UV-I 0 W/m 3,2 km/h (1 Bft)
24.03.2010 01:40 6,1 C 82 % 1015,8 hPa 0,0 mm 1,6 km/h (1 Bft) O 90 0 min 0 UV-I 0 W/m 4,8 km/h (1 Bft)
24.03.2010 01:50 5,9 C 83 % 1015,7 hPa 0,0 mm 0,0 km/h (0 Bft) O 90 0 min 0 UV-I 0 W/m 3,2 km/h (1 Bft)
24.03.2010 02:00 6,1 C 83 % 1015,7 hPa 0,0 mm 0,0 km/h (0 Bft) O 90 0 min 0 UV-I 0 W/m 3,2 km/h (1 Bft)
24.03.2010 02:10 6,1 C 83 % 1015,5 hPa 0,0 mm 0,0 km/h (0 Bft) O 90 0 min 0 UV-I 0 W/m 3,2 km/h (1 Bft)
24.03.2010 02:20 5,9 C 84 % 1015,4 hPa 0,0 mm 0,0 km/h (0 Bft) O 90 0 min 0 UV-I 0 W/m 3,2 km/h (1 Bft)
24.03.2010 02:30 5,9 C 84 % 1015,3 hPa 0,0 mm 0,0 km/h (0 Bft) O 90 0 min 0 UV-I 0 W/m 3,2 km/h (1 Bft)
24.03.2010 02:40 6,2 C 84 % 1015,2 hPa 0,0 mm 0,0 km/h (0 Bft) O 90 0 min 0 UV-I 0 W/m 3,2 km/h (1 Bft)
24.03.2010 02:50 6,3 C 83 % 1015,1 hPa 0,0 mm 0,0 km/h (0 Bft) O 90 0 min 0 UV-I 0 W/m 4,8 km/h (1 Bft)
24.03.2010 03:00 6,4 C 84 % 1015,1 hPa 0,0 mm 0,0 km/h (0 Bft) O 90 0 min 0 UV-I 0 W/m 4,8 km/h (1 Bft)
24.03.2010 03:10 6,8 C 83 % 1015,0 hPa 0,0 mm 1,6 km/h (1 Bft) O-SO 112 0 min 0 UV-I 0 W/m 8,0 km/h (2 Bft)
24.03.2010 03:20 7,2 C 82 % 1015,0 hPa 0,0 mm 1,6 km/h (1 Bft) O 90 0 min 0 UV-I 0 W/m 6,4 km/h (2 Bft)
24.03.2010 03:30 7,3 C 81 % 1015,0 hPa 0,0 mm 1,6 km/h (1 Bft) O-SO 112 0 min 0 UV-I 0 W/m 4,8 km/h (1 Bft)
24.03.2010 03:40 7,3 C 82 % 1014,9 hPa 0,0 mm 1,6 km/h (1 Bft) O-SO 112 0 min 0 UV-I 0 W/m 6,4 km/h (2 Bft)
24.03.2010 03:50 7,2 C 82 % 1014,8 hPa 0,0 mm 1,6 km/h (1 Bft) O-SO 112 0 min 0 UV-I 0 W/m 4,8 km/h (1 Bft)
24.03.2010 04:00 7,2 C 82 % 1014,8 hPa 0,0 mm 3,2 km/h (1 Bft) O-SO 112 0 min 0 UV-I 0 W/m 6,4 km/h (2 Bft)
24.03.2010 04:10 7,2 C 82 % 1014,7 hPa 0,0 mm 1,6 km/h (1 Bft) O-SO 112 0 min 0 UV-I 0 W/m 6,4 km/h (2 Bft)
24.03.2010 04:20 7,1 C 83 % 1014,7 hPa 0,0 mm 3,2 km/h (1 Bft) O-SO 112 0 min 0 UV-I 0 W/m 8,0 km/h (2 Bft)
24.03.2010 04:30 7,1 C 83 % 1014,6 hPa 0,0 mm 3,2 km/h (1 Bft) O 90 0 min 0 UV-I 0 W/m 8,0 km/h (2 Bft)
24.03.2010 04:40 7,1 C 83 % 1014,7 hPa 0,0 mm 1,6 km/h (1 Bft) O 90 0 min 0 UV-I 0 W/m 6,4 km/h (2 Bft)
24.03.2010 04:50 7,1 C 83 % 1014,5 hPa 0,0 mm 1,6 km/h (1 Bft) O-SO 112 0 min 0 UV-I 0 W/m 6,4 km/h (2 Bft)
24.03.2010 05:00 7,1 C 83 % 1014,1 hPa 0,0 mm 1,6 km/h (1 Bft) O-SO 112 0 min 0 UV-I 0 W/m 6,4 km/h (2 Bft)
24.03.2010 05:10 6,9 C 83 % 1014,2 hPa 0,0 mm 1,6 km/h (1 Bft) O-SO 112 0 min 0 UV-I 0 W/m 4,8 km/h (1 Bft)
24.03.2010 05:20 6,9 C 84 % 1014,4 hPa 0,0 mm 3,2 km/h (1 Bft) O-SO 112 0 min 0 UV-I 0 W/m 9,7 km/h (2 Bft)
24.03.2010 05:30 6,8 C 84 % 1014,5 hPa 0,0 mm 3,2 km/h (1 Bft) O-SO 112 0 min 0 UV-I 0 W/m 9,7 km/h (2 Bft)
24.03.2010 05:40 6,9 C 84 % 1014,4 hPa 0,0 mm 3,2 km/h (1 Bft) O-SO 112 0 min 0 UV-I 0 W/m 6,4 km/h (2 Bft)
24.03.2010 05:50 7,0 C 84 % 1014,3 hPa 0,0 mm 3,2 km/h (1 Bft) O-SO 112 0 min 0 UV-I 0 W/m 8,0 km/h (2 Bft)
24.03.2010 06:00 7,0 C 84 % 1014,3 hPa 0,0 mm 3,2 km/h (1 Bft) O-SO 112 0 min 0 UV-I 0 W/m 8,0 km/h (2 Bft)
24.03.2010 06:10 6,9 C 84 % 1014,3 hPa 0,0 mm 3,2 km/h (1 Bft) O-SO 112 0 min 0 UV-I 0 W/m 8,0 km/h (2 Bft)
24.03.2010 06:20 6,9 C 84 % 1014,2 hPa 0,0 mm 1,6 km/h (1 Bft) O-SO 112 0 min 0 UV-I 0 W/m 6,4 km/h (2 Bft)
24.03.2010 06:30 6,9 C 84 % 1014,1 hPa 0,0 mm 3,2 km/h (1 Bft) O-SO 112 0 min 0 UV-I 5 W/m 8,0 km/h (2 Bft)
24.03.2010 06:40 7,0 C 84 % 1013,9 hPa 0,0 mm 3,2 km/h (1 Bft) O-SO 112 0 min 0 UV-I 11 W/m 8,0 km/h (2 Bft)
24.03.2010 06:50 7,2 C 83 % 1012,2 hPa 0,0 mm 3,2 km/h (1 Bft) O-SO 112 0 min 0 UV-I 21 W/m 8,0 km/h (2 Bft)
24.03.2010 07:00 7,2 C 83 % 1011,2 hPa 0,0 mm 3,2 km/h (1 Bft) O-SO 112 0 min 0 UV-I 32 W/m 6,4 km/h (2 Bft)
24.03.2010 07:10 7,2 C 83 % 1013,4 hPa 0,0 mm 3,2 km/h (1 Bft) O-SO 112 0 min 0 UV-I 42 W/m 8,0 km/h (2 Bft)
24.03.2010 07:20 7,4 C 82 % 1013,8 hPa 0,0 mm 3,2 km/h (1 Bft) O-SO 112 0 min 0 UV-I 56 W/m 9,7 km/h (2 Bft)
24.03.2010 07:30 7,6 C 81 % 1013,7 hPa 0,0 mm 4,8 km/h (1 Bft) O 90 0 min 0 UV-I 60 W/m 11,3 km/h (2 Bft)
24.03.2010 07:40 7,8 C 81 % 1013,8 hPa 0,0 mm 3,2 km/h (1 Bft) O-SO 112 0 min 0 UV-I 86 W/m 9,7 km/h (2 Bft)
24.03.2010 07:50 8,1 C 81 % 1013,7 hPa 0,0 mm 1,6 km/h (1 Bft) O-SO 112 0 min 0 UV-I 113 W/m 8,0 km/h (2 Bft)
24.03.2010 08:00 8,5 C 80 % 1013,7 hPa 0,0 mm 1,8 km/h (1 Bft) O-SO 105 0 min 1 UV-I 130 W/m 4,8 km/h (1 Bft)
24.03.2010 08:10 8,7 C 79 % 1013,7 hPa 0,0 mm 3,2 km/h (1 Bft) O-SO 112 10 min 1 UV-I 171 W/m 8,0 km/h (2 Bft)
24.03.2010 08:20 9,2 C 78 % 1013,6 hPa 0,0 mm 3,2 km/h (1 Bft) O-SO 112 10 min 1 UV-I 190 W/m 9,7 km/h (2 Bft)
24.03.2010 08:30 9,6 C 76 % 1013,5 hPa 0,0 mm 3,2 km/h (1 Bft) O 90 10 min 1 UV-I 197 W/m 9,7 km/h (2 Bft)
24.03.2010 08:40 9,9 C 75 % 1011,7 hPa 0,0 mm 3,2 km/h (1 Bft) O-SO 112 10 min 1 UV-I 229 W/m 11,3 km/h (2 Bft)
24.03.2010 08:50 10,3 C 73 % 1013,4 hPa 0,0 mm 3,2 km/h (1 Bft) O 90 10 min 1 UV-I 264 W/m 9,7 km/h (2 Bft)
24.03.2010 09:00 10,8 C 72 % 1012,9 hPa 0,0 mm 3,2 km/h (1 Bft) O 90 10 min 1 UV-I 320 W/m 9,7 km/h (2 Bft)
24.03.2010 09:10 11,3 C 71 % 1013,3 hPa 0,0 mm 1,6 km/h (1 Bft) O-SO 112 10 min 1 UV-I 343 W/m 9,7 km/h (2 Bft)
24.03.2010 09:20 12,0 C 68 % 1012,8 hPa 0,0 mm 3,2 km/h (1 Bft) SO 135 10 min 1 UV-I 380 W/m 11,3 km/h (2 Bft)
24.03.2010 09:30 12,2 C 66 % 1013,3 hPa 0,0 mm 6,4 km/h (2 Bft) O-SO 112 10 min 2 UV-I 322 W/m 16,1 km/h (3 Bft)
24.03.2010 09:40 12,3 C 65 % 1012,8 hPa 0,0 mm 4,8 km/h (1 Bft) O-SO 112 10 min 2 UV-I 374 W/m 17,7 km/h (3 Bft)
24.03.2010 09:50 12,5 C 65 % 1013,2 hPa 0,0 mm 4,8 km/h (1 Bft) S-SO 157 10 min 2 UV-I 352 W/m 19,3 km/h (3 Bft)
24.03.2010 10:00 12,6 C 65 % 1013,1 hPa 0,0 mm 6,4 km/h (2 Bft) O 90 10 min 2 UV-I 413 W/m 20,9 km/h (4 Bft)
24.03.2010 10:10 12,8 C 65 % 1013,0 hPa 0,0 mm 6,4 km/h (2 Bft) O 90 10 min 2 UV-I 424 W/m 20,9 km/h (4 Bft)
24.03.2010 10:20 13,2 C 64 % 1012,9 hPa 0,0 mm 6,4 km/h (2 Bft) O-SO 112 10 min 2 UV-I 436 W/m 20,9 km/h (4 Bft)
24.03.2010 10:30 13,4 C 64 % 1012,9 hPa 0,0 mm 6,4 km/h (2 Bft) S-SO 157 10 min 2 UV-I 492 W/m 19,3 km/h (3 Bft)
24.03.2010 10:40 13,9 C 63 % 1012,9 hPa 0,0 mm 6,4 km/h (2 Bft) O-SO 112 10 min 2 UV-I 438 W/m 17,7 km/h (3 Bft)
24.03.2010 10:50 14,0 C 63 % 1012,8 hPa 0,0 mm 8,0 km/h (2 Bft) O-SO 112 10 min 3 UV-I 566 W/m 20,9 km/h (4 Bft)
24.03.2010 11:00 14,6 C 62 % 1012,8 hPa 0,0 mm 6,4 km/h (2 Bft) O 90 10 min 3 UV-I 580 W/m 20,9 km/h (4 Bft)
24.03.2010 11:10 15,0 C 61 % 1012,6 hPa 0,0 mm 6,4 km/h (2 Bft) O-SO 112 10 min 3 UV-I 506 W/m 22,5 km/h (4 Bft)
24.03.2010 11:20 15,1 C 61 % 1012,4 hPa 0,0 mm 6,4 km/h (2 Bft) SO 135 10 min 3 UV-I 510 W/m 16,1 km/h (3 Bft)
24.03.2010 11:30 15,4 C 59 % 1012,3 hPa 0,0 mm 6,4 km/h (2 Bft) SO 135 10 min 3 UV-I 645 W/m 22,5 km/h (4 Bft)
24.03.2010 11:40 15,7 C 58 % 1012,3 hPa 0,0 mm 6,4 km/h (2 Bft) O-SO 112 10 min 3 UV-I 622 W/m 16,1 km/h (3 Bft)
24.03.2010 11:50 15,9 C 57 % 1012,2 hPa 0,0 mm 6,4 km/h (2 Bft) S-SO 157 10 min 3 UV-I 596 W/m 20,9 km/h (4 Bft)
24.03.2010 12:00 15,7 C 57 % 1012,2 hPa 0,0 mm 6,4 km/h (2 Bft) SO 135 10 min 3 UV-I 622 W/m 22,5 km/h (4 Bft)
24.03.2010 12:10 16,2 C 57 % 1012,2 hPa 0,0 mm 4,8 km/h (1 Bft) SO 135 10 min 3 UV-I 587 W/m 16,1 km/h (3 Bft)
24.03.2010 12:20 16,3 C 57 % 1012,1 hPa 0,0 mm 6,4 km/h (2 Bft) SO 135 10 min 3 UV-I 517 W/m 16,1 km/h (3 Bft)
24.03.2010 12:30 16,1 C 58 % 1012,1 hPa 0,0 mm 6,4 km/h (2 Bft) O-SO 112 10 min 3 UV-I 466 W/m 20,9 km/h (4 Bft)
24.03.2010 12:40 16,2 C 56 % 1012,0 hPa 0,0 mm 6,4 km/h (2 Bft) S-SO 157 10 min 3 UV-I 548 W/m 17,7 km/h (3 Bft)
24.03.2010 12:50 16,4 C 57 % 1011,9 hPa 0,0 mm 8,0 km/h (2 Bft) O-SO 112 10 min 4 UV-I 701 W/m 20,9 km/h (4 Bft)
24.03.2010 13:00 17,3 C 53 % 1011,8 hPa 0,0 mm 8,0 km/h (2 Bft) SO 135 10 min 4 UV-I 793 W/m 22,5 km/h (4 Bft)
24.03.2010 13:10 17,8 C 52 % 1011,6 hPa 0,0 mm 9,7 km/h (2 Bft) O-SO 112 10 min 4 UV-I 770 W/m 24,1 km/h (4 Bft)
24.03.2010 13:20 18,3 C 50 % 1011,3 hPa 0,0 mm 4,8 km/h (1 Bft) O-SO 112 10 min 4 UV-I 765 W/m 16,1 km/h (3 Bft)
24.03.2010 13:30 18,6 C 50 % 1011,2 hPa 0,0 mm 6,4 km/h (2 Bft) O-SO 112 10 min 4 UV-I 763 W/m 19,3 km/h (3 Bft)
24.03.2010 13:40 18,8 C 47 % 1011,1 hPa 0,0 mm 8,0 km/h (2 Bft) SO 135 10 min 4 UV-I 768 W/m 19,3 km/h (3 Bft)
24.03.2010 13:50 18,9 C 48 % 1011,0 hPa 0,0 mm 6,4 km/h (2 Bft) SO 135 10 min 4 UV-I 770 W/m 19,3 km/h (3 Bft)
24.03.2010 14:00 18,7 C 46 % 1010,8 hPa 0,0 mm 6,4 km/h (2 Bft) S-SO 157 10 min 3 UV-I 575 W/m 17,7 km/h (3 Bft)
24.03.2010 14:10 18,4 C 48 % 1010,8 hPa 0,0 mm 6,4 km/h (2 Bft) O-SO 112 10 min 3 UV-I 568 W/m 17,7 km/h (3 Bft)
24.03.2010 14:20 18,6 C 47 % 1010,7 hPa 0,0 mm 6,4 km/h (2 Bft) O-SO 112 10 min 3 UV-I 587 W/m 17,7 km/h (3 Bft)
24.03.2010 14:30 18,7 C 47 % 1010,6 hPa 0,0 mm 6,4 km/h (2 Bft) O-SO 112 10 min 3 UV-I 675 W/m 17,7 km/h (3 Bft)
24.03.2010 14:40 19,1 C 46 % 1010,5 hPa 0,0 mm 6,4 km/h (2 Bft) O-SO 112 10 min 3 UV-I 642 W/m 17,7 km/h (3 Bft)
24.03.2010 14:50 19,3 C 45 % 1010,5 hPa 0,0 mm 6,4 km/h (2 Bft) O-SO 112 10 min 3 UV-I 626 W/m 17,7 km/h (3 Bft)
24.03.2010 15:00 19,3 C 46 % 1010,3 hPa 0,0 mm 4,8 km/h (1 Bft) O-SO 112 10 min 2 UV-I 494 W/m 17,7 km/h (3 Bft)
24.03.2010 15:10 19,1 C 45 % 1010,1 hPa 0,0 mm 6,4 km/h (2 Bft) O-SO 112 10 min 2 UV-I 640 W/m 17,7 km/h (3 Bft)
24.03.2010 15:20 19,5 C 45 % 1010,0 hPa 0,0 mm 4,8 km/h (1 Bft) S-SO 157 10 min 2 UV-I 629 W/m 16,1 km/h (3 Bft)
24.03.2010 15:30 19,6 C 45 % 1009,9 hPa 0,0 mm 4,8 km/h (1 Bft) O-SO 112 10 min 2 UV-I 485 W/m 14,5 km/h (3 Bft)
24.03.2010 15:40 19,4 C 46 % 1010,0 hPa 0,0 mm 4,8 km/h (1 Bft) O-SO 112 10 min 2 UV-I 345 W/m 16,1 km/h (3 Bft)
24.03.2010 15:50 18,9 C 46 % 1010,0 hPa 0,0 mm 6,4 km/h (2 Bft) O-SO 112 10 min 2 UV-I 496 W/m 22,5 km/h (4 Bft)
24.03.2010 16:00 18,9 C 46 % 1009,8 hPa 0,0 mm 4,1 km/h (1 Bft) S 188 10 min 1 UV-I 234 W/m 9,7 km/h (2 Bft)
24.03.2010 16:10 18,7 C 46 % 1009,8 hPa 0,0 mm 4,8 km/h (1 Bft) S-SO 157 10 min 1 UV-I 262 W/m 14,5 km/h (3 Bft)
24.03.2010 16:20 18,4 C 49 % 1009,7 hPa 0,0 mm 3,2 km/h (1 Bft) S-SO 157 10 min 1 UV-I 246 W/m 11,3 km/h (2 Bft)
24.03.2010 16:30 18,4 C 50 % 1009,6 hPa 0,0 mm 3,2 km/h (1 Bft) O-SO 112 10 min 1 UV-I 267 W/m 8,0 km/h (2 Bft)
24.03.2010 16:40 18,4 C 49 % 1009,6 hPa 0,0 mm 4,8 km/h (1 Bft) O-SO 112 10 min 1 UV-I 218 W/m 14,5 km/h (3 Bft)
24.03.2010 16:50 18,1 C 49 % 1009,5 hPa 0,0 mm 3,2 km/h (1 Bft) O-SO 112 10 min 1 UV-I 183 W/m 9,7 km/h (2 Bft)
24.03.2010 17:00 17,8 C 49 % 1009,4 hPa 0,0 mm 3,2 km/h (1 Bft) O-SO 112 10 min 1 UV-I 149 W/m 11,3 km/h (2 Bft)
24.03.2010 17:10 17,4 C 51 % 1009,4 hPa 0,0 mm 4,8 km/h (1 Bft) O-SO 112 10 min 1 UV-I 141 W/m 14,5 km/h (3 Bft)
24.03.2010 17:20 17,3 C 51 % 1009,4 hPa 0,0 mm 3,2 km/h (1 Bft) O 90 0 min 1 UV-I 113 W/m 8,0 km/h (2 Bft)
24.03.2010 17:30 17,1 C 51 % 1009,3 hPa 0,0 mm 3,2 km/h (1 Bft) O-SO 112 0 min 0 UV-I 98 W/m 8,0 km/h (2 Bft)
24.03.2010 17:40 16,8 C 51 % 1009,4 hPa 0,0 mm 3,2 km/h (1 Bft) O-SO 112 10 min 0 UV-I 90 W/m 8,0 km/h (2 Bft)
24.03.2010 17:50 16,7 C 52 % 1009,3 hPa 0,0 mm 3,2 km/h (1 Bft) O-SO 112 10 min 0 UV-I 84 W/m 9,7 km/h (2 Bft)
24.03.2010 18:00 16,5 C 52 % 1009,3 hPa 0,0 mm 3,2 km/h (1 Bft) O 90 10 min 0 UV-I 67 W/m 9,7 km/h (2 Bft)
24.03.2010 18:10 16,3 C 52 % 1009,4 hPa 0,0 mm 1,6 km/h (1 Bft) O 90 10 min 0 UV-I 56 W/m 6,4 km/h (2 Bft)
24.03.2010 18:20 15,9 C 54 % 1009,5 hPa 0,0 mm 1,6 km/h (1 Bft) O 90 10 min 0 UV-I 33 W/m 9,7 km/h (2 Bft)
24.03.2010 18:30 15,6 C 55 % 1009,5 hPa 0,0 mm 1,6 km/h (1 Bft) SO 135 10 min 0 UV-I 25 W/m 6,4 km/h (2 Bft)
24.03.2010 18:40 15,3 C 55 % 1009,5 hPa 0,0 mm 1,6 km/h (1 Bft) O-SO 112 0 min 0 UV-I 12 W/m 8,0 km/h (2 Bft)
24.03.2010 18:50 15,0 C 57 % 1009,4 hPa 0,0 mm 1,6 km/h (1 Bft) O-SO 112 0 min 0 UV-I 0 W/m 4,8 km/h (1 Bft)
24.03.2010 19:00 14,8 C 58 % 1009,4 hPa 0,0 mm 0,0 km/h (0 Bft) O-SO 112 0 min 0 UV-I 0 W/m 3,2 km/h (1 Bft)
24.03.2010 19:10 14,4 C 59 % 1009,4 hPa 0,0 mm 0,0 km/h (0 Bft) N 0 0 min 0 UV-I 0 W/m 0,0 km/h (0 Bft)
24.03.2010 19:20 13,8 C 62 % 1009,5 hPa 0,0 mm 0,0 km/h (0 Bft) N 0 0 min 0 UV-I 0 W/m 0,0 km/h (0 Bft)
24.03.2010 19:30 13,4 C 63 % 1009,6 hPa 0,0 mm 0,0 km/h (0 Bft) N 0 0 min 0 UV-I 0 W/m 0,0 km/h (0 Bft)
24.03.2010 19:40 12,9 C 64 % 1009,5 hPa 0,0 mm 0,0 km/h (0 Bft) N 0 0 min 0 UV-I 0 W/m 0,0 km/h (0 Bft)
24.03.2010 19:50 12,7 C 65 % 1009,7 hPa 0,0 mm 0,0 km/h (0 Bft) N 0 0 min 0 UV-I 0 W/m 0,0 km/h (0 Bft)
24.03.2010 20:00 12,6 C 66 % 1009,7 hPa 0,0 mm 0,0 km/h (0 Bft) O-SO 112 0 min 0 UV-I 0 W/m 1,6 km/h (1 Bft)
24.03.2010 20:10 12,3 C 66 % 1009,5 hPa 0,0 mm 1,6 km/h (1 Bft) O-SO 112 0 min 0 UV-I 0 W/m 6,4 km/h (2 Bft)
24.03.2010 20:20 12,4 C 64 % 1009,5 hPa 0,0 mm 1,6 km/h (1 Bft) O-SO 112 0 min 0 UV-I 0 W/m 6,4 km/h (2 Bft)
24.03.2010 20:30 12,7 C 64 % 1009,4 hPa 0,0 mm 1,6 km/h (1 Bft) O-SO 112 0 min 0 UV-I 0 W/m 6,4 km/h (2 Bft)
24.03.2010 20:40 12,6 C 64 % 1009,4 hPa 0,0 mm 1,6 km/h (1 Bft) O-SO 112 0 min 0 UV-I 0 W/m 4,8 km/h (1 Bft)
24.03.2010 20:50 12,3 C 65 % 1009,3 hPa 0,0 mm 0,0 km/h (0 Bft) O-SO 112 0 min 0 UV-I 0 W/m 3,2 km/h (1 Bft)
24.03.2010 21:00 12,0 C 65 % 1009,3 hPa 0,0 mm 0,0 km/h (0 Bft) O-SO 112 0 min 0 UV-I 0 W/m 4,8 km/h (1 Bft)
24.03.2010 21:10 11,9 C 66 % 1009,2 hPa 0,0 mm 0,0 km/h (0 Bft) O-SO 112 0 min 0 UV-I 0 W/m 3,2 km/h (1 Bft)
24.03.2010 21:20 11,6 C 67 % 1009,2 hPa 0,0 mm 0,0 km/h (0 Bft) O-SO 112 0 min 0 UV-I 0 W/m 1,6 km/h (1 Bft)
24.03.2010 21:30 11,1 C 69 % 1009,1 hPa 0,0 mm 0,0 km/h (0 Bft) O-SO 112 0 min 0 UV-I 0 W/m 1,6 km/h (1 Bft)
24.03.2010 21:40 10,8 C 70 % 1009,2 hPa 0,0 mm 0,0 km/h (0 Bft) N 0 0 min 0 UV-I 0 W/m 0,0 km/h (0 Bft)
24.03.2010 21:50 10,4 C 73 % 1009,2 hPa 0,0 mm 0,0 km/h (0 Bft) N 0 0 min 0 UV-I 0 W/m 0,0 km/h (0 Bft)
24.03.2010 22:00 9,9 C 75 % 1009,2 hPa 0,0 mm 0,0 km/h (0 Bft) N 0 0 min 0 UV-I 0 W/m 0,0 km/h (0 Bft)
24.03.2010 22:10 9,6 C 75 % 1009,2 hPa 0,0 mm 0,0 km/h (0 Bft) N 0 0 min 0 UV-I 0 W/m 0,0 km/h (0 Bft)
24.03.2010 22:20 9,2 C 76 % 1009,3 hPa 0,0 mm 0,0 km/h (0 Bft) O-SO 121 0 min 0 UV-I 0 W/m 0,0 km/h (0 Bft)
24.03.2010 22:30 9,1 C 76 % 1009,2 hPa 0,0 mm 0,0 km/h (0 Bft) O-SO 121 0 min 0 UV-I 0 W/m 1,6 km/h (1 Bft)
24.03.2010 22:40 8,9 C 77 % 1009,2 hPa 0,0 mm 0,0 km/h (0 Bft) O-SO 121 0 min 0 UV-I 0 W/m 0,0 km/h (0 Bft)
24.03.2010 22:50 8,6 C 78 % 1009,2 hPa 0,0 mm 0,1 km/h (0 Bft) O-SO 121 0 min 0 UV-I 0 W/m 3,2 km/h (1 Bft)
24.03.2010 23:00 8,3 C 79 % 1009,2 hPa 0,0 mm 0,1 km/h (0 Bft) O-SO 121 0 min 0 UV-I 0 W/m 1,6 km/h (1 Bft)
24.03.2010 23:10 8,2 C 79 % 1009,1 hPa 0,0 mm 0,0 km/h (0 Bft) O-SO 121 0 min 0 UV-I 0 W/m 1,6 km/h (1 Bft)
24.03.2010 23:20 8,2 C 81 % 1009,1 hPa 0,0 mm 0,0 km/h (0 Bft) O-SO 121 0 min 0 UV-I 0 W/m 0,0 km/h (0 Bft)
24.03.2010 23:30 8,1 C 80 % 1009,1 hPa 0,0 mm 0,0 km/h (0 Bft) O-SO 121 0 min 0 UV-I 0 W/m 0,0 km/h (0 Bft)
24.03.2010 23:40 7,9 C 81 % 1009,1 hPa 0,0 mm 0,0 km/h (0 Bft) O-SO 121 0 min 0 UV-I 0 W/m 0,0 km/h (0 Bft)
24.03.2010 23:50 7,9 C 80 % 1009,1 hPa 0,0 mm 0,0 km/h (0 Bft) N 0 0 min 0 UV-I 0 W/m 0,0 km/h (0 Bft)
_ Min-Zeit 00:00 14:50 21:30 - 00:00 - - - - - 19:10
Minimum _ 5,7 C 45 % 1009,1 hPa - 0,0 km/h (0 Bft) - - - - - 0,0 km/h (0 Bft)
_ Max-Zeit 15:30 02:20 00:10 00:00 13:10 - - 08:10 13:00 13:00 13:10
Maximum _ 19,8 C 84 % 1016,3 hPa 0,0 mm 9,7 km/h
O-SO (2 Bft)
- - 10 min 4 UV-I 793 W/m 24,1 km/h
O-SO (4 Bft)
Durchschnitt _ 11,8 C 68 % 1012,1 hPa #0,0 mm 2,9 km/h (1 Bft) O-SO - #10:10 h 2 UV-I 365 W/m 9,3 km/h (2 Bft)